User: anonymous   Login
Location: La Coruña
(43.3623°N, 8.4115°W)
Time: 17:46:21
(UTC+02:00)
Language:

STARLINK-1122 - Orbit

View from above orbital plane
View from above orbital plane
View from above satellite
View from above satellite

Ground track
Ground track

The orbit data is extracted from the following two-line orbital elements,

1 44949C 20001AM  20095.53182339  .00003923  00000-0  26861-3 0   953
2 44949  52.9993 326.3879 0002097  76.5785  72.5541 15.05584213    12
Epoch (UTC): 04 April 2020 12:45:49
Eccentricity: 0.0002097
inclination: 52.9993°
perigee height: 548 km
apogee height: 551 km
right ascension of ascending node: 326.3879°
argument of perigee: 76.5785°
revolutions per day: 15.05584213
mean anomaly at epoch: 72.5541°
orbit number at epoch: 1

The dashed part of the orbit path shows where the satellite is in the earth's shadow,  

DLR